Lid_Strength_Index
9 11 11 11 11 12 12 13 13 12 10 12 12 12 10 9 8 8 8 7 7 6 5 5 4 3 3 2 1 1 0 -0 -0 0 1 1 1 1 0 -0 -0 -0 -0 -0
12 13 12 12 12 13 13 14 13 12 11 12 12 12 9 9 8 8 8 8 7 7 6 5 4 4 4 4 3 2 1 0 0 0 0 -0 0 0 0 -0 -0 -0 -0 -0
12 12 12 13 13 13 13 13 13 14 12 11 11 12 11 9 8 8 8 7 6 6 6 5 5 5 4 4 4 4 3 1 0 -0 0 0 -0 0 1 1 0 0 -0 -0
11 11 12 13 13 13 14 12 13 13 14 15 11 16 11 9 9 10 9 7 7 6 6 6 6 6 5 5 5 5 5 4 0 0 1 1 1 2 1 1 0 0 -0 -0
13 13 13 13 13 12 13 12 13 13 14 14 13 14 11 9 11 11 8 8 7 7 7 7 7 7 6 7 6 7 7 7 6 5 2 1 2 1 1 1 1 1 0 0
12 11 12 12 12 12 12 13 12 12 13 16 13 14 12 10 11 9 8 8 8 7 7 7 6 6 7 7 8 8 9 8 8 7 5 3 2 2 2 1 1 1 1 0
13 13 11 11 13 11 12 13 16 16 16 15 12 15 12 10 9 8 9 8 8 7 8 8 7 7 7 7 8 9 10 9 9 8 7 6 6 5 2 2 1 2 1 1
14 15 12 10 11 12 13 13 16 19 17 15 12 15 11 9 7 7 7 7 7 7 7 7 7 7 7 7 8 9 11 10 9 9 9 7 7 7 1 1 1 1 2 3
13 14 11 11 10 11 12 14 12 15 14 17 14 11 10 8 8 8 8 8 8 6 6 6 6 7 8 9 8 9 10 11 10 10 10 8 9 8 6 4 2 3 2 2
12 14 12 11 11 11 12 11 15 14 19 19 15 13 11 9 9 8 8 8 7 6 5 5 6 6 6 7 7 7 8 10 10 10 10 9 9 9 8 6 5 4 3 3
11 12 13 12 13 13 12 14 14 13 13 17 17 12 8 9 8 7 6 6 6 5 4 4 5 5 6 7 8 8 9 10 11 12 10 9 9 8 9 7 6 5 4 3
10 12 14 13 11 11 11 12 12 15 15 13 13 14 6 6 6 6 6 5 4 4 3 3 4 6 7 8 9 10 10 11 12 12 10 10 11 10 10 8 7 5 4 3
11 13 15 15 12 11 12 11 11 11 11 14 15 13 7 7 7 6 6 5 4 4 4 4 5 6 9 10 10 10 10 11 11 11 11 10 10 12 10 9 8 6 5 4
9 12 13 15 14 12 14 11 10 10 13 12 12 11 8 8 7 6 5 5 5 5 5 5 6 6 8 9 10 10 10 11 11 11 11 11 10 11 11 9 10 8 7 6
11 14 13 12 11 11 11 11 10 11 10 12 10 10 8 8 7 6 6 6 6 6 6 6 7 7 8 9 9 11 11 11 11 11 11 11 10 10 10 10 10 9 9 7
10 13 12 13 11 10 11 10 10 9 9 9 9 10 7 6 6 6 6 7 7 7 7 7 7 8 9 10 10 11 11 11 11 12 12 12 11 11 11 10 9 9 10 9
10 11 12 13 11 11 13 10 9 9 9 10 11 8 6 7 8 7 7 8 8 8 8 8 8 8 9 9 9 11 11 10 11 12 12 12 12 12 11 11 11 10 10 9
9 10 10 13 11 16 10 7 7 9 8 7 8 7 8 7 7 7 7 8 8 8 8 8 8 8 9 9 9 10 10 11 11 12 13 13 12 12 11 11 11 10 10 11
7 9 11 14 13 11 10 8 9 9 10 7 8 7 7 7 7 8 7 7 8 8 7 8 8 8 8 9 9 9 10 10 12 12 13 13 12 12 13 13 12 12 11 11
8 8 11 12 14 16 11 7 6 6 13 6 7 8 8 7 10 8 7 7 7 7 8 8 8 8 8 8 9 10 10 10 11 12 12 11 12 12 13 12 12 12 12 12
11 11 13 12 13 12 7 6 5 13 13 7 7 7 8 9 8 7 7 8 8 8 8 8 8 9 9 8 9 10 10 11 11 11 11 11 11 11 11 11 11 11 11 12
12 13 13 12 14 15 6 6 10 8 6 7 7 7 9 8 7 8 9 8 8 8 8 8 9 9 8 9 9 10 10 10 10 11 11 11 11 11 11 11 11 11 12 12
13 11 11 10 10 6 5 6 5 5 6 7 7 7 7 8 9 9 9 8 8 8 8 8 9 9 8 9 9 11 11 11 11 11 12 12 11 12 12 12 12 13 13 13
8 6 10 10 8 6 6 5 5 5 7 7 6 6 7 9 9 9 9 9 9 9 9 9 9 10 10 9 10 10 11 11 12 12 12 11 12 12 12 12 11 12 13 14
7 7 8 9 7 6 6 5 6 6 6 7 7 8 9 9 10 10 10 10 10 10 10 10 11 11 11 10 11 11 11 11 12 12 11 11 12 12 12 11 11 12 12 13
6 8 9 9 7 7 6 5 5 7 7 7 8 8 9 10 10 11 11 11 11 12 11 12 12 12 12 12 12 12 12 12 13 13 12 12 12 12 12 12 12 11 12 12